Starkville, MS

8:06 PM CDT on August 31, 2016 (GMT -0500)
Bryan

Weather History for KSTF - February, 2013

Change the Weather History Date:

Friday, February 15, 2013

  Actual Average Record
Temperature  
Mean Temperature 46 °F -  
Max Temperature 59 °F 60 °F 62 °F (2012)
Min Temperature 32 °F 39 °F 28 °F (2015)
Degree Days  
Heating Degree Days 20    
Moisture  
Dew Point 34 °F    
Average Humidity 69    
Maximum Humidity 100    
Minimum Humidity 36    
Precipitation  
Precipitation 0.00 in - - ()
Sea Level Pressure  
Sea Level Pressure 30.13 in    
Wind  
Wind Speed 2 mph (NNW)    
Max Wind Speed 12 mph    
Max Gust Speed 17 mph    
Visibility 10 miles    
Events      
Averages and records for this station are not official NWS values.
T = Trace of Precipitation, MM = Missing Value Source: NWS Daily Summary

Daily Weather History Graph

Daily Weather History Graph

Search for Another Location

Airport or City:

Trip Planner

Search our weather history database for the weather conditions in past years. The results will help you decide how hot, cold, wet, or windy it might be!

Date:

Astronomy

Feb. 15, 2013 Rise Set
Actual Time 6:39 AM CST 5:40 PM CST
Civil Twilight 6:13 AM CST 6:05 PM CST
Nautical Twilight 5:44 AM CST 6:34 PM CST
Astronomical Twilight 5:15 AM CST 7:03 PM CST
Moon 9:34 AM CST (2/15) 11:20 PM CST (2/15)
Length of Visible Light 11h 52m
Length of Day
11h 01m
Waxing Crescent, 30% of the Moon is Illuminated
Feb 15
Waxing Crescent
Feb 17
First Quarter
Feb 25
Full
Mar 4
Last Quarter
Mar 11
New

Hourly Weather History & Observations

Time (CST) Temp. Windchill Dew Point Humidity Pressure Visibility Wind Dir Wind Speed Gust Speed Precip Events Conditions
12:15 AM 33.8 °F - 33.8 °F 100% 30.09 in 10.0 mi Calm Calm - N/A   Clear
12:35 AM 33.8 °F - 33.8 °F 100% 30.09 in 10.0 mi Calm Calm - N/A   Clear
12:55 AM 32.0 °F - 32.0 °F 100% 30.09 in 7.0 mi Calm Calm - N/A   Clear
1:15 AM 33.8 °F - 33.8 °F 100% 30.09 in 7.0 mi Calm Calm - N/A   Clear
1:35 AM 33.8 °F - 33.8 °F 100% 30.09 in 7.0 mi Calm Calm - N/A   Clear
1:55 AM 32.0 °F - 32.0 °F 100% 30.09 in 5.0 mi Calm Calm - N/A   Clear
2:15 AM 32.0 °F - 32.0 °F 100% 30.09 in 5.0 mi Calm Calm - N/A   Clear
2:35 AM 32.0 °F - 32.0 °F 100% 30.09 in 10.0 mi Calm Calm - N/A   Clear
2:55 AM 32.0 °F - 32.0 °F 100% 30.10 in 10.0 mi Calm Calm - N/A   Clear
3:15 AM 32.0 °F - 32.0 °F 100% 30.10 in 7.0 mi Calm Calm - N/A   Clear
3:35 AM 32.0 °F - 32.0 °F 100% 30.10 in 10.0 mi Calm Calm - N/A   Clear
3:55 AM 32.0 °F - 32.0 °F 100% 30.11 in 7.0 mi Calm Calm - N/A   Clear
4:15 AM 32.0 °F - 32.0 °F 100% 30.11 in 10.0 mi Calm Calm - N/A   Clear
4:35 AM 32.0 °F - 32.0 °F 100% 30.11 in 7.0 mi Calm Calm - N/A   Clear
4:55 AM 32.0 °F - 32.0 °F 100% 30.11 in 7.0 mi Calm Calm - N/A   Clear
5:15 AM 32.0 °F - 32.0 °F 100% 30.12 in 10.0 mi Calm Calm - N/A   Clear
5:35 AM 32.0 °F - 32.0 °F 100% 30.12 in 7.0 mi Calm Calm - N/A   Clear
5:55 AM 32.0 °F - 32.0 °F 100% 30.12 in 10.0 mi Calm Calm - N/A   Clear
6:15 AM 32.0 °F - 32.0 °F 100% 30.12 in 10.0 mi Calm Calm - N/A   Clear
6:35 AM 32.0 °F - 32.0 °F 100% 30.13 in 10.0 mi Calm Calm - N/A   Clear
6:55 AM 32.0 °F - 32.0 °F 100% 30.14 in 10.0 mi Calm Calm - N/A   Clear
7:15 AM 32.0 °F - 32.0 °F 100% 30.14 in 10.0 mi Calm Calm - N/A   Clear
7:35 AM 32.0 °F - 32.0 °F 100% 30.14 in 10.0 mi Calm Calm - N/A   Clear
7:55 AM 37.4 °F - 35.6 °F 93% 30.15 in 10.0 mi Calm Calm - N/A   Clear
8:15 AM 41.0 °F 39.0 °F 37.4 °F 87% 30.15 in 10.0 mi West 3.5 mph - N/A   Clear
8:35 AM 44.6 °F 42.2 °F 39.2 °F 81% 30.16 in 10.0 mi WNW 4.6 mph - N/A   Clear
8:55 AM 44.6 °F 41.4 °F 39.2 °F 81% 30.16 in 10.0 mi NW 5.8 mph - N/A   Clear
9:15 AM 46.4 °F 42.9 °F 39.2 °F 76% 30.17 in 10.0 mi NNW 6.9 mph - N/A   Clear
9:35 AM 48.2 °F - 39.2 °F 71% 30.17 in 10.0 mi NNW 5.8 mph - N/A   Clear
9:55 AM 50.0 °F - 39.2 °F 66% 30.17 in 10.0 mi North 4.6 mph - N/A   Clear
10:15 AM 51.8 °F - 37.4 °F 58% 30.17 in 10.0 mi North 9.2 mph - N/A   Clear
10:35 AM 53.6 °F - 37.4 °F 54% 30.17 in 10.0 mi North 8.1 mph - N/A   Clear
10:55 AM 53.6 °F - 35.6 °F 51% 30.17 in 10.0 mi NNW 9.2 mph - N/A   Clear
11:15 AM 55.4 °F - 35.6 °F 47% 30.16 in 10.0 mi North 6.9 mph - N/A   Clear
11:35 AM 55.4 °F - 35.6 °F 47% 30.15 in 10.0 mi North 6.9 mph - N/A   Clear
11:55 AM 55.4 °F - 33.8 °F 44% 30.14 in 10.0 mi NNW 6.9 mph - N/A   Clear
12:15 PM 57.2 °F - 33.8 °F 41% 30.14 in 10.0 mi North 5.8 mph - N/A   Clear
12:35 PM 59.0 °F - 33.8 °F 39% 30.12 in 10.0 mi NNW 4.6 mph - N/A   Clear
12:55 PM 59.0 °F - 32.0 °F 36% 30.12 in 10.0 mi NW 6.9 mph - N/A   Scattered Clouds
1:15 PM 57.2 °F - 32.0 °F 38% 30.11 in 10.0 mi NW 3.5 mph - N/A   Scattered Clouds
1:35 PM 59.0 °F - 33.8 °F 39% 30.10 in 10.0 mi WNW 4.6 mph - N/A   Mostly Cloudy
1:55 PM 59.0 °F - 33.8 °F 39% 30.09 in 10.0 mi WNW 3.5 mph - N/A   Mostly Cloudy
2:15 PM 59.0 °F - 33.8 °F 39% 30.09 in 10.0 mi NW 4.6 mph - N/A   Mostly Cloudy
2:35 PM 59.0 °F - 35.6 °F 42% 30.09 in 10.0 mi NW 6.9 mph - N/A   Overcast
2:55 PM 57.2 °F - 35.6 °F 44% 30.09 in 10.0 mi NNW 5.8 mph - N/A   Overcast
3:15 PM 57.2 °F - 35.6 °F 44% 30.09 in 10.0 mi NNW 6.9 mph - N/A   Overcast
3:35 PM 57.2 °F - 35.6 °F 44% 30.10 in 10.0 mi NW 8.1 mph - N/A   Overcast
3:55 PM 53.6 °F - 37.4 °F 54% 30.10 in 10.0 mi NNW 11.5 mph 17.3 mph N/A   Overcast
4:15 PM 53.6 °F - 37.4 °F 54% 30.10 in 10.0 mi NNW 5.8 mph - N/A   Overcast
4:35 PM 53.6 °F - 37.4 °F 54% 30.10 in 10.0 mi North 5.8 mph - N/A   Overcast
4:55 PM 53.6 °F - 35.6 °F 51% 30.10 in 10.0 mi NNW 5.8 mph - N/A   Mostly Cloudy
5:15 PM 51.8 °F - 35.6 °F 54% 30.10 in 10.0 mi NW 6.9 mph - N/A   Mostly Cloudy
5:35 PM 51.8 °F - 35.6 °F 54% 30.11 in 10.0 mi NW 3.5 mph - N/A   Overcast
5:55 PM 51.8 °F - 35.6 °F 54% 30.11 in 10.0 mi NW 3.5 mph - N/A   Mostly Cloudy
6:15 PM 50.0 °F - 35.6 °F 58% 30.11 in 10.0 mi Calm Calm - N/A   Overcast
6:35 PM 50.0 °F - 35.6 °F 58% 30.12 in 10.0 mi WNW 3.5 mph - N/A   Overcast
6:55 PM 48.2 °F - 35.6 °F 62% 30.12 in 10.0 mi WNW 3.5 mph - N/A   Mostly Cloudy
7:15 PM 48.2 °F - 33.8 °F 58% 30.13 in 10.0 mi NW 6.9 mph - N/A   Scattered Clouds
7:35 PM 48.2 °F - 32.0 °F 54% 30.13 in 10.0 mi NW 6.9 mph - N/A   Mostly Cloudy
7:55 PM 48.2 °F - 32.0 °F 54% 30.14 in 10.0 mi NW 6.9 mph - N/A   Overcast
8:15 PM 48.2 °F - 30.2 °F 50% 30.15 in 10.0 mi NNW 6.9 mph - N/A   Overcast
8:35 PM 46.4 °F 42.4 °F 30.2 °F 53% 30.15 in 10.0 mi NW 8.1 mph - N/A   Overcast
8:55 PM 46.4 °F 42.9 °F 28.4 °F 50% 30.16 in 10.0 mi NNW 6.9 mph - N/A   Overcast
9:15 PM 46.4 °F 42.4 °F 28.4 °F 50% 30.16 in 10.0 mi NW 8.1 mph - N/A   Overcast
9:35 PM 46.4 °F 45.2 °F 28.4 °F 50% 30.17 in 10.0 mi NW 3.5 mph - N/A   Overcast
9:55 PM 44.6 °F 41.4 °F 30.2 °F 57% 30.17 in 10.0 mi NNW 5.8 mph - N/A   Overcast
10:15 PM 44.6 °F 41.4 °F 30.2 °F 57% 30.17 in 10.0 mi NNW 5.8 mph - N/A   Overcast
10:35 PM 44.6 °F 40.7 °F 30.2 °F 57% 30.17 in 10.0 mi NNW 6.9 mph - N/A   Overcast
10:55 PM 44.6 °F 41.4 °F 30.2 °F 57% 30.16 in 10.0 mi North 5.8 mph - N/A   Mostly Cloudy
11:15 PM 42.8 °F 41.1 °F 30.2 °F 61% 30.16 in 10.0 mi NNW 3.5 mph - N/A   Scattered Clouds
11:35 PM 42.8 °F 41.1 °F 30.2 °F 61% 30.16 in 10.0 mi North 3.5 mph - N/A   Scattered Clouds
11:55 PM 42.8 °F 41.1 °F 30.2 °F 61% 30.15 in 10.0 mi North 3.5 mph - N/A   Scattered Clouds